Regional Weather Roundup
Issued by NWS Wakefield, VA

Home | Current Version | Previous Version | Text Only | Print | Product List | Glossary Off
Versions: 1 2 3 4 5 6 7 8 9 10 11 12 13 14 15 16 17 18 19 20 21 22 23 24 25 26 27 28 29 30 31 32 33 34 35 36 37 38 39 40 41 42 43 44 45 46 47 48 49 50

000
ASUS41 KAKQ 181910
RWRAKQ

REGIONAL WEATHER ROUNDUP
NATIONAL WEATHER SERVICE WAKEFIELD VA
300 PM EDT THU SEP 18 2014

Note: "fair" indicates few or no clouds below 12,000 feet with no
significant weather and/or obstructions to visibility. * = Denotes
station may not report precipitation (e.g., rain,snow,etc.),
thunder or fog.

VAZ042-051-052>054-056-182000-
NORTHERN VIRGINIA

CITY           SKY/WX    TMP DP  RH WIND       PRES   REMARKS
WASH NATIONAL  PTSUNNY   78  57  48 SE3       30.00S
DULLES         PTSUNNY   77  49  37 NW13G20   30.01S
FORT BELVOIR   MOSUNNY   77  58  51 SW5       30.00F
QUANTICO       PTSUNNY   75  61  61 S7        30.01F
FREDERICKSBRG* PTSUNNY   72  63  72 SE3       29.99F
STAFFORD*      LGT RAIN  69  64  81 SW3       30.05R
WARRENTON      PTSUNNY   77  61  58 NW7       30.00F
CULPEPER*      SUNNY     79  55  44 NW6       30.01F
MANASSAS*      NOT AVBL
LEESBURG*      MOSUNNY   77  52  41 NW9       30.02F
WINCHESTER     PTSUNNY   73  45  35 NW7       30.02F
FRONT ROYAL*   CLOUDY    72  52  49 NE3       30.01F
LURAY*         CLOUDY    79  50  36 N6        30.01F
$$

VAZ048-049-060>072-079>083-182000-
CENTRAL AND SOUTH CENTRAL VIRGINIA...AND NORTH CENTRAL NORTH CAROLINA

CITY           SKY/WX    TMP DP  RH WIND       PRES   REMARKS
RICHMOND       PTSUNNY   76  58  53 S7        30.00F
CHESTERFIELD*  CLOUDY   N/A N/A N/A SW3       30.01S
PETERSBURG*    CLOUDY    73  60  63 CALM      30.00F
HANOVER        CLOUDY    73  61  65 CALM      30.01F
TAPPAHANNOCK*  CLOUDY    73  57  57 CALM      30.01F
CHARLOTTSVILLE CLOUDY    72  57  59 E7        30.00S
ORANGE*        CLOUDY    73  54  49 CALM      30.02S
LOUISA*        CLOUDY    70  64  83 CALM      30.00F
FARMVILLE*     PTSUNNY   79  57  47 SW6       29.98F
CREWE*         CLOUDY    71  62  75 CALM      30.00F
FORT PICKETT*  CLOUDY    74  59  60 CALM      30.00F
LUNENBURG*     CLOUDY    75  62  64 CALM      30.00F
SOUTH HILL*    CLOUDY    79  59  50 S3        30.05F
LAWRENCEVILLE* CLOUDY    76  62  59 E6        30.00F
ROANOKE RAPIDS CLEAR     77  59  53 CALM      30.00F
RALEIGH        MOSUNNY   77  58  51 E6        29.99F
$$

VAZ088>098-182000-
SOUTHEAST VIRGINIA

CITY           SKY/WX    TMP DP  RH WIND       PRES   REMARKS
NORFOLK        SUNNY     75  47  36 NE6       30.01F
VIRGINIA BEACH MOSUNNY   75  54  47 E10       30.01F
NORFOLK NAVAL  MOSUNNY   76  53  44 E7        30.03S
WEST POINT*    CLOUDY    76  57  50 E5        30.02S
NEWPORT NEWS   SUNNY     80  54  40 E8        30.01F
LANGLEY AFB    SUNNY     76  56  50 SE8       30.01S
FORT EUSTIS    SUNNY     77  51  39 VRB3      29.99F
WILLIAMSBURG*  PTSUNNY   79  57  47 S6        30.01F
HR EXEC AP*    CLEAR     79  55  44 E6        30.03S
FRANKLIN*      PTSUNNY   81  54  39 S3        30.00F
WAKEFIELD      CLOUDY    76  59  55 NE3       30.00F
$$

VAZ020-022-025-037-045-182000-
WEST CENTRAL AND SOUTHWEST VIRGINIA

CITY           SKY/WX    TMP DP  RH WIND       PRES   REMARKS
STAUNTON*      CLOUDY    74  51  45 E3        30.04S
HOT SPRINGS VA PTSUNNY   62  35  36 NW5       30.12S
LYNCHBURG      PTSUNNY   74  57  55 SW7       30.02F
DANVILLE       SUNNY     79  59  50 VRB3      29.99F
SOUTH BOSTON*  NOT AVBL
MARTINSVILLE   PTSUNNY   79  60  51 N3        30.03F
ROANOKE        PTSUNNY   74  54  49 SE3       30.03F
BLACKSBURG     MOSUNNY   73  55  53 NW3       30.07F
DUBLIN*        CLOUDY    71  56  57 W5        30.07S
MARION*        CLOUDY    69  53  57 SW7       30.09F
HILLSVILLE*    CLOUDY    65  55  70 N7        30.08S
RICHLANDS*     CLOUDY    68  53  58 CALM      30.08F
WISE*          CLOUDY    68  48  49 CALM      30.09F
ABINGDON*      PTSUNNY   71  57  62 CALM      30.06F
$$

MDZ021>025-VAZ099-100-182000-
SOUTHERN MARYLAND AND THE DELMARVA PENINSULA

CITY           SKY/WX    TMP DP  RH WIND       PRES   REMARKS
PATUXENT RIVER PTSUNNY   73  56  54 SE7G21    30.00F
BAY BRIDGE APT   N/A     72  54  53 S3        30.01R
LEONARDTOWN    CLOUDY    72  54  53 CALM      30.02S
DOVER          PTSUNNY   73  53  50 E7        29.99S
GEORGETOWN     CLOUDY    74  50  42 E3        30.01S
EASTON         MOSUNNY   77  57  50 NW5       30.04S
CAMBRIDGE      MOSUNNY   73  54  49 SW7       30.00S
SALISBURY      CLOUDY    78  52  40 SE6       30.00S
OCEAN CITY     PTSUNNY   73  55  53 VRB6      30.02R
WALLOPS ISLAND PTSUNNY   75  54  47 S8        30.02S
ACCOMACK*      CLOUDY    72  50  46 SE6       30.02S
$$

NCZ012>017-030>032-182000-
EASTERN NORTH CAROLINA

CITY           SKY/WX    TMP DP  RH WIND       PRES   REMARKS
ELIZABETH CITY SUNNY     76  54  46 NE10      30.01S
AHOSKIE*       MOSUNNY   76  57  52 CALM      30.00F
EDENTON*       MOSUNNY   77  59  53 E8        30.00S
CURRITUCK*     SUNNY     75  52  44 E7        30.02S
KILL DEVIL HLS SUNNY     75  55  49 NE7G16    29.99S
MANTEO         SUNNY     74  56  53 NE15      30.00S
CAPE HATTERAS  SUNNY     75  58  55 NE10G18   29.98F
TARBORO*       PTCLDY    81  59  46 N6        30.00F
GOLDSBORO      MOSUNNY   80  64  57 E6        29.96F
WASHINGTON     SUNNY     79  60  51 NE7       29.99F
GREENVILLE     MOSUNNY   79  59  50 CALM      30.01F
NEW BERN       MOSUNNY   80  60  50 VRB6      29.99F
WILMINGTON     CLOUDY    78  66  66 NE12      29.97S
$$

VAZ048-182000-
ELSEWHERE

CITY           SKY/WX    TMP DP  RH WIND       PRES   REMARKS
HARRISBURG PA  MOSUNNY   76  44  32 NW8G16    30.01S
BALTIMORE      PTSUNNY   70  62  76 SE6       30.00S
ANNAPOLIS      LGT RAIN  70  60  70 N7        30.00R
ANDREWS AFB    MOSUNNY   75  60  59 S10       29.99F
WILMINGTON DE  CLOUDY    67  58  72 NW8       30.02S
PHILADELPHIA   CLOUDY    71  54  54 SW10      30.01S
WILDWOOD NJ*   CLOUDY    73  48  40 W7        30.01S
ATLANTIC CITY  CLOUDY    73  52  47 N5        30.00F
HENDERSON NC   HAZE      78  56  46 CALM      30.00F VSB 3/4
GREENSBORO     LGT RAIN  73  62  68 CALM      30.00F
ROCKY MOUNT    PTSUNNY   78  59  51 NE3       29.99F
FAYETTEVILLE   MOSUNNY   83  64  52 NE9       29.96F
CHARLOTTE      PTSUNNY   77  61  57 SE5       29.99F
$$

VAZ100-182000-
MARINE

STATION/POSITION TIME  TEMP    WIND        PRES    WAVE   SWELL
                       AIR SEA DIR/SP/G            HT/PER HT/PER
                 (UTC) (F)     (DEG/KT/KT) (MB)    (FT/S) (FT/S)
44066 TX TWR #4  1900   68 74  330/ 10/ 12 1015.2F   3/13   3/13
CAPE MAY NJ      1900   71 76  300/  6/  7 1015.6S
LEWES DE         1900   71 72   40/  6/  7 1015.9R
15NM E FENWICK I 1900   70 73              1016.2S   3/11
OCEAN-CITY-INLET 1900   71 72  130/  5/  7 1016.0R
WACHAPREAGUE VA  1900   71 73  120/  6/  8 1016.6S
THOMAS POINT MD  1900   71 75  170/  6/  7 1016.9S
GOOSES REEF MD   1900   72     180/  8/ 10 1016.5S
COVE POINT MD    1900   70     180/  9/ 10 1015.9F
SOLOMONS ISLAND  1900      76                N/A
BISHOPS HEAD MD  1900   72 73  150/  3/  6 1015.7F
PINEY POINT MD   1900          160/  9/ 11   N/A
POTOMAC MD       1900   71     150/  8/ 10 1015.5F
CAMBRIDGE MD     1900   72 74  330/  5/  6 1015.6S
LEWISETTA VA     1900   71 75  120/ 12/ 14 1015.6S
RAPPAHANNOCK LGT 1900          360/  2/  3 1016.9S
STINGRAY PT      1900   72     110/  6/  6   N/A
YORK RVR RNG VA  1900   72     120/  5/  6 1016.0S
YORKTOWN VA      1900   73 77   90/  8/  9 1016.0F
JAMESTOWN VA     1900   73     180/  6/  8   N/A
DOMINION TERM VA 1900   72      80/  7/ 10 1016.4S
KIPTOPEKE VA     1900      80  130/  5/ 12   N/A
CHES BAY BRIDGE  1900   72 75   80/  7/ 10 1016.1S
CAPE HENRY VA    1900   71      70/  9/ 10 1015.4S
CHESAPEAKE LGHT  1800   70      50/ 11/ 12 1017.2F
WILLOUBY STN VA  1900   72     100/  7/  9 1015.2S
S CRANEY ISL VA  1900           50/  8/ 10 1016.0F
CAPE HENRY BUOY  1900      76                N/A     3/13   2/13
1ST LANDING BUOY 1900   72      90/  8/ 10 1016.1F
CAPE CHARLES BUO 1900      75                N/A     3/14   3/14
OFFSHORE WE BUOY 1900      74                N/A     4/13   3/13
64NM E OF VA BCH 1900   72 77   30/ 12/ 16 1015.3F   4/12   3/12
DUCK PIER NC     1900   71 75   40/ 13/ 15 1015.4R
44100 DUCK FRF   1900      75                N/A     4/14   2/14
44056 DUCK FRF   1900                        N/A     4/12   2/12
OREGON INLET NC  1900   73 74   20/ 12/ 16 1015.4S
HATTERAS NC      1900   73 76   20/ 13/ 16 1015.8S
DIAMOND SHLS NC  1900   74     360/ 16/ 21 1014.8F   6/13   3/13
CAPE LOOKOUT NC  1900   74      50/ 16/ 18 1015.4R
$$



USA.gov is the U.S. government's official web portal to all federal, state and local government web resources and services.